Flight Track Log - Related Links

Times and Time Zones

All times are in EDT time to prevent confusion due to time zone crossing. See the AWI3602 flight status page for this flight to view local times or setup timezone preferences in your user account.

Time Position Orientation Groundspeed Altitude Reporting Facility
EDT Latitude Longitude Course Direction KTS MPH feet Rate Location/Type
Tue 07:18:40 AM 33.3361 -81.9603 352° North 150 173 1,900  Level Atlanta Center
Tue 07:19:40 AM 33.3350 -82.0075 268° West 202 232 3,600 2,050 Climbing Atlanta Center
Tue 07:20:00 AM 33.6393 -82.0118 346° North  Level FlightAware Approximate
Tue 07:20:40 AM 33.3997 -82.0208 350° North 185 213 6,000  Level Atlanta Center
Tue 07:21:00 AM 33.7292 -82.0387 346° North  Level FlightAware Approximate
Tue 07:21:40 AM 33.4711 -82.0317 353° North 216 249 8,200  Level Atlanta Center
Tue 07:22:00 AM 33.8201 -82.0589 352° North  Level FlightAware Approximate
Tue 07:22:40 AM 33.5381 -82.0425 352° North 236 272 10,400  Level Atlanta Center
Tue 07:23:00 AM 33.9119 -82.0742 352° North  Level FlightAware Approximate
Tue 07:23:40 AM 33.6153 -82.0533 353° North 253 291 11,000  Level Atlanta Center
Tue 07:24:40 AM 33.6969 -82.0664 352° North 280 322 11,000  Level Atlanta Center
Tue 07:25:40 AM 33.7722 -82.0769 353° North 300 345 11,000  Level Atlanta Center
Tue 07:26:40 AM 33.8581 -82.0925 351° North 306 352 11,000  Level Atlanta Center
Tue 07:27:40 AM 33.9481 -82.1056 353° North 316 364 11,000  Level Atlanta Center
Tue 07:28:40 AM 34.0358 -82.1186 353° North 316 364 11,000  Level Atlanta Center
Tue 07:29:40 AM 34.1175 -82.1319 352° North 305 351 11,000  Level Atlanta Center
Tue 07:30:40 AM 34.1969 -82.1450 352° North 292 336 11,000  Level Atlanta Center
Tue 07:31:40 AM 34.2719 -82.1308 North 284 327 11,000 250 Level Atlanta Center
Tue 07:32:40 AM 34.3272 -82.0592 47° Northeast 257 296 11,500 500 Climbing Atlanta Center
Tue 07:33:40 AM 34.3844 -81.9872 46° Northeast 272 313 12,000 250 Climbing Atlanta Center
Tue 07:34:40 AM 34.4289 -81.9006 58° Northeast 283 326 12,000  Level Atlanta Center
Tue 07:35:40 AM 34.4625 -81.7992 68° East 304 350 12,000  Level Atlanta Center
Tue 07:36:22 AM 34.4900 -81.7100 69° East 343 395 12,000  Level Atlanta Center
Tue 07:37:35 AM 34.5697 -81.6222 42° Northeast 340 391 12,000  Level Atlanta Center
Tue 07:38:40 AM 34.6503 -81.5769 25° Northeast 314 361 12,000  Level Atlanta Center
Tue 07:39:49 AM 34.7556 -81.5183 25° Northeast 359 413 12,000  Level Atlanta Center
Tue 07:40:40 AM 34.8083 -81.4483 47° Northeast 337 388 12,000  Level Atlanta Center
Tue 07:41:39 AM 34.8814 -81.3575 46° Northeast 357 411 12,000  Level Atlanta Center
Tue 07:42:40 AM 34.9483 -81.2639 49° Northeast 348 400 12,000  Level Atlanta Center
Tue 07:43:35 AM 35.0072 -81.1936 44° Northeast 337 388 12,000 -650 Level Atlanta Center
Tue 07:44:40 AM 35.0678 -81.1103 48° Northeast 315 362 10,700 -1,440 Descending Atlanta Center
Tue 07:45:40 AM 35.1397 -81.0594 30° Northeast 289 333 9,000 -927 Descending Atlanta Center
Tue 07:46:43 AM 35.2233 -81.0717 353° North 277 319 8,800 -774 Descending Atlanta Center
Tue 07:47:44 AM 35.2967 -81.0794 355° North 255 293 7,400 -1,377 Descending Atlanta Center
Tue 07:48:45 AM 35.3678 -81.0869 355° North 256 295 6,000 -1,377 Descending Atlanta Center
Tue 07:49:46 AM 35.4389 -81.0919 357° North 254 292 4,600 -885 Descending Atlanta Center
Tue 07:50:47 AM 35.4769 -81.0344 51° Northeast 200 230 4,200 -281 Descending Atlanta Center
Tue 07:51:54 AM 35.4508 -80.9922 127° Southeast 158 182 4,000 -103 Descending Atlanta Center
Tue 07:52:43 AM 35.4133 -80.9858 172° South 163 188 4,000  Level Atlanta Center

Login

Don't have an account? Register now (free) for customized features, flight alerts, and more!